• en France
  • Liste des pays
  • À 7 jours
  • Température de l'eau
  • Carte satellitaire
  • Carte météo
  • Widgets météo
  • user-avatar
    Se connecter

    Météo par heure à Harada

    Ce jour, 18 Octobre, Jeudi

    Heure Température Précipitation Vent Pression Humidité
    00:00 +6°C° 0 mm 1 m/s 606 mmHg 68%
    01:00 +6°C° 0 mm 1 m/s 606 mmHg 64%
    02:00 +6°C° 0 mm 1 m/s 606 mmHg 59%
    03:00 +6°C° 0 mm 1 m/s 605 mmHg 55%
    04:00 +5°C° 0 mm 1 m/s 605 mmHg 48%
    05:00 +5°C° 0 mm 1 m/s 605 mmHg 42%
    06:00 +5°C° 0 mm 1 m/s 605 mmHg 35%
    07:00 +8°C° 0 mm 1 m/s 606 mmHg 31%
    08:00 +10°C° 0 mm 1 m/s 607 mmHg 27%
    09:00 +12°C° 0 mm 1 m/s 608 mmHg 22%
    10:00 +13°C° 0 mm 1 m/s 608 mmHg 23%
    11:00 +14°C° 0 mm 1 m/s 609 mmHg 24%
    12:00 +15°C° 0 mm 2 m/s 609 mmHg 24%
    13:00 +15°C° 0 mm 2 m/s 609 mmHg 28%
    14:00 +15°C° 0 mm 2 m/s 608 mmHg 31%
    15:00 +14°C° 0 mm 2 m/s 608 mmHg 34%
    16:00 +12°C° 0 mm 1 m/s 607 mmHg 45%
    17:00 +10°C° 0 mm 1 m/s 606 mmHg 56%
    18:00 +7°C° 0 mm 1 m/s 605 mmHg 67%
    19:00 +7°C° 0 mm 1 m/s 605 mmHg 65%
    20:00 +7°C° 0 mm 1 m/s 606 mmHg 62%
    21:00 +7°C° 0 mm 1 m/s 606 mmHg 59%
    22:00 +6°C° 0 mm 1 m/s 605 mmHg 58%
    23:00 +6°C° 0 mm 1 m/s 605 mmHg 58%

    Demain, 19 Octobre, Vendredi

    Heure Température Précipitation Vent Pression Humidité
    00:00 +5°C° 0 mm 2 m/s 605 mmHg 57%
    01:00 +5°C° 0 mm 2 m/s 605 mmHg 59%
    02:00 +4°C° 0 mm 2 m/s 605 mmHg 61%
    03:00 +4°C° 0 mm 2 m/s 605 mmHg 63%
    04:00 +4°C° 0 mm 2 m/s 605 mmHg 63%
    05:00 +4°C° 0 mm 2 m/s 605 mmHg 63%
    06:00 +4°C° 0 mm 2 m/s 604 mmHg 63%
    07:00 +7°C° 0 mm 1 m/s 605 mmHg 55%
    08:00 +10°C° 0 mm 1 m/s 607 mmHg 47%
    09:00 +12°C° 0 mm 1 m/s 608 mmHg 40%
    10:00 +13°C° 0 mm 1 m/s 608 mmHg 37%
    11:00 +14°C° 0 mm 1 m/s 608 mmHg 35%
    12:00 +15°C° 0 mm 1 m/s 608 mmHg 33%
    13:00 +15°C° 0 mm 1 m/s 608 mmHg 35%
    14:00 +15°C° 0 mm 1 m/s 608 mmHg 38%
    15:00 +14°C° 0 mm 1 m/s 607 mmHg 40%
    16:00 +12°C° 0 mm 1 m/s 606 mmHg 50%
    17:00 +10°C° 0 mm 1 m/s 605 mmHg 59%
    18:00 +8°C° 0 mm 1 m/s 605 mmHg 69%
    19:00 +8°C° 0 mm 1 m/s 605 mmHg 70%
    20:00 +7°C° 0 mm 1 m/s 605 mmHg 71%
    21:00 +6°C° 0 mm 2 m/s 604 mmHg 72%
    22:00 +6°C° 0 mm 2 m/s 604 mmHg 73%
    23:00 +5°C° 0 mm 2 m/s 604 mmHg 74%

    Après-demain, 20 Octobre, Samedi

    Heure Température Précipitation Vent Pression Humidité
    00:00 +5°C° 0 mm 2 m/s 604 mmHg 75%
    01:00 +5°C° 0 mm 2 m/s 603 mmHg 73%
    02:00 +5°C° 0 mm 2 m/s 603 mmHg 72%
    03:00 +4°C° 0 mm 2 m/s 603 mmHg 70%
    04:00 +4°C° 0 mm 2 m/s 603 mmHg 66%
    05:00 +4°C° 0 mm 2 m/s 603 mmHg 61%
    06:00 +4°C° 0 mm 2 m/s 602 mmHg 57%
    07:00 +7°C° 0 mm 2 m/s 604 mmHg 49%
    08:00 +10°C° 0 mm 1 m/s 605 mmHg 41%
    09:00 +12°C° 0 mm 1 m/s 606 mmHg 33%
    10:00 +13°C° 0 mm 1 m/s 606 mmHg 31%
    11:00 +14°C° 0 mm 2 m/s 606 mmHg 30%
    12:00 +15°C° 0 mm 2 m/s 606 mmHg 29%
    13:00 +15°C° 0 mm 2 m/s 606 mmHg 31%
    14:00 +15°C° 0 mm 2 m/s 606 mmHg 33%
    15:00 +15°C° 0 mm 2 m/s 605 mmHg 35%
    16:00 +13°C° 0 mm 1 m/s 604 mmHg 42%
    17:00 +11°C° 0 mm 1 m/s 604 mmHg 49%
    18:00 +9°C° 0 mm 1 m/s 603 mmHg 56%
    19:00 +8°C° 0 mm 1 m/s 603 mmHg 56%
    20:00 +8°C° 0 mm 1 m/s 603 mmHg 55%
    21:00 +8°C° 0 mm 1 m/s 603 mmHg 55%
    22:00 +7°C° 0 mm 1 m/s 603 mmHg 55%
    23:00 +7°C° 0 mm 1 m/s 602 mmHg 55%

    21 Octobre, Dimanche

    Heure Température Précipitation Vent Pression Humidité
    00:00 +7°C° 0 mm 1 m/s 602 mmHg 55%
    01:00 +7°C° 0 mm 1 m/s 602 mmHg 56%
    02:00 +7°C° 0 mm 1 m/s 602 mmHg 56%
    03:00 +6°C° 0 mm 2 m/s 602 mmHg 57%
    04:00 +6°C° 0 mm 2 m/s 602 mmHg 57%
    05:00 +6°C° 0 mm 2 m/s 602 mmHg 57%
    06:00 +6°C° 0 mm 2 m/s 602 mmHg 58%
    07:00 +9°C° 0 mm 1 m/s 603 mmHg 51%
    08:00 +11°C° 0 mm 1 m/s 604 mmHg 45%
    09:00 +13°C° 0 mm 1 m/s 605 mmHg 39%
    10:00 +14°C° 0 mm 1 m/s 605 mmHg 38%
    11:00 +15°C° 0 mm 2 m/s 605 mmHg 38%
    12:00 +16°C° 0 mm 2 m/s 605 mmHg 38%
    13:00 +15°C° 0 mm 2 m/s 604 mmHg 40%
    14:00 +15°C° 0 mm 2 m/s 604 mmHg 41%
    15:00 +15°C° 0 mm 1 m/s 604 mmHg 43%
    16:00 +13°C° 0 mm 1 m/s 603 mmHg 49%
    17:00 +11°C° 0 mm 1 m/s 602 mmHg 55%
    18:00 +9°C° 0 mm 1 m/s 602 mmHg 61%
    19:00 +9°C° 0 mm 1 m/s 602 mmHg 61%
    20:00 +9°C° 0 mm 1 m/s 602 mmHg 61%
    21:00 +8°C° 0 mm 2 m/s 602 mmHg 61%
    22:00 +7°C° 0 mm 2 m/s 601 mmHg 62%
    23:00 +7°C° 0 mm 2 m/s 601 mmHg 62%

    22 Octobre, Lundi

    Heure Température Précipitation Vent Pression Humidité
    00:00 +7°C° 0 mm 2 m/s 601 mmHg 62%
    01:00 +7°C° 0 mm 2 m/s 601 mmHg 62%
    02:00 +7°C° 0 mm 2 m/s 601 mmHg 62%
    03:00 +7°C° 0 mm 1 m/s 601 mmHg 62%
    04:00 +7°C° 0 mm 1 m/s 601 mmHg 62%
    05:00 +7°C° 0 mm 1 m/s 601 mmHg 62%
    06:00 +7°C° 0 mm 1 m/s 601 mmHg 61%
    07:00 +9°C° 0 mm 1 m/s 602 mmHg 57%
    08:00 +10°C° 0 mm 1 m/s 602 mmHg 53%
    09:00 +12°C° 0 mm 1 m/s 603 mmHg 49%
    10:00 +13°C° 0 mm 1 m/s 604 mmHg 47%
    11:00 +14°C° 0 mm 1 m/s 604 mmHg 46%
    12:00 +15°C° 0 mm 2 m/s 604 mmHg 45%
    13:00 +14°C° 0 mm 2 m/s 604 mmHg 46%
    14:00 +14°C° 0 mm 2 m/s 604 mmHg 47%
    15:00 +14°C° 0 mm 2 m/s 603 mmHg 48%
    16:00 +12°C° 0 mm 1 m/s 603 mmHg 55%
    17:00 +10°C° 0 mm 1 m/s 603 mmHg 62%
    18:00 +9°C° 0 mm 1 m/s 602 mmHg 69%
    19:00 +8°C° 0 mm 1 m/s 602 mmHg 68%
    20:00 +8°C° 0 mm 1 m/s 602 mmHg 67%
    21:00 +7°C° 0 mm 2 m/s 602 mmHg 66%
    22:00 +7°C° 0 mm 2 m/s 602 mmHg 66%
    23:00 +7°C° 0 mm 2 m/s 602 mmHg 67%

    23 Octobre, Mardi

    Heure Température Précipitation Vent Pression Humidité
    00:00 +6°C° 0 mm 2 m/s 602 mmHg 67%
    01:00 +6°C° 0 mm 2 m/s 602 mmHg 68%
    02:00 +6°C° 0 mm 2 m/s 602 mmHg 69%
    03:00 +6°C° 0 mm 2 m/s 602 mmHg 70%
    04:00 +6°C° 0 mm 2 m/s 602 mmHg 71%
    05:00 +6°C° 0 mm 2 m/s 602 mmHg 71%
    06:00 +6°C° 0 mm 2 m/s 602 mmHg 71%
    07:00 +8°C° 0 mm 2 m/s 603 mmHg 64%
    08:00 +10°C° 0 mm 2 m/s 604 mmHg 58%
    09:00 +13°C° 0 mm 2 m/s 605 mmHg 51%
    10:00 +14°C° 0 mm 2 m/s 605 mmHg 47%
    11:00 +14°C° 0 mm 3 m/s 605 mmHg 44%
    12:00 +16°C° 0 mm 3 m/s 605 mmHg 40%
    13:00 +16°C° 0 mm 3 m/s 605 mmHg 42%
    14:00 +14°C° 0 mm 3 m/s 605 mmHg 44%
    15:00 +14°C° 0 mm 3 m/s 604 mmHg 45%
    16:00 +12°C° 0 mm 3 m/s 604 mmHg 52%
    17:00 +11°C° 0 mm 3 m/s 603 mmHg 59%
    18:00 +9°C° 0 mm 3 m/s 602 mmHg 67%
    19:00 +8°C° 0 mm 3 m/s 602 mmHg 68%
    20:00 +8°C° 0 mm 3 m/s 602 mmHg 70%
    21:00 +7°C° 0 mm 3 m/s 602 mmHg 72%
    22:00 +7°C° 0 mm 3 m/s 601 mmHg 71%
    23:00 +7°C° 0 mm 3 m/s 601 mmHg 71%
    Voir plus